Simultaneous Nadir Overpasses (SNOs) Predictions

Prediction of SNOs between NOAA-20 and METOP-C Satellite Orbit:

Table of predicted SNOs for the next 14.0 days since TLE Epoch: 6/29/2020
Index Date (NOAA-20) Time (NOAA-20) Lat,Lon (NOAA-20) SZA (NOAA-20 ) Date (METOP-C) Time (METOP-C) Lat,Lon (METOP-C) SZA (METOP-C ) Distance(km) Time Diff (sec)
1 07/03/2020 19:02:09 73.43,-115.16 50.81 07/03/2020 19:03:15 73.37,-112.31 50.58 90.77 66
2 07/03/2020 19:52:51 -73.33, 52.39 129.30 07/03/2020 19:53:59 -73.27, 54.80 129.50 77.37 68
3 07/03/2020 20:43:33 73.14,-139.88 50.49 07/03/2020 20:44:43 73.04,-138.36 50.30 50.21 70
4 07/03/2020 21:34:15 -73.03, 27.66 129.62 07/03/2020 21:35:26 -73.00, 28.87 129.74 39.52 71
5 07/03/2020 22:24:57 72.84,-164.62 50.17 07/03/2020 22:26:10 72.77,-164.28 50.06 13.73 73
6 07/03/2020 23:15:39 -72.74, 2.91 129.94 07/03/2020 23:16:53 -72.73, 2.96 129.97 1.92 74
7 07/04/2020 00:06:24 72.69, 170.31 50.02 07/04/2020 00:07:33 72.70, 170.23 50.01 2.53 69
8 07/04/2020 00:57:08 -72.69, -22.37 129.99 07/04/2020 00:58:15 -72.71, -22.43 129.99 2.24 67
9 07/04/2020 01:47:54 72.70, 144.92 50.03 07/04/2020 01:48:54 72.73, 144.95 50.04 2.97 60
10 07/04/2020 02:38:38 -72.70, -47.76 129.97 07/04/2020 02:39:37 -72.68, -47.81 130.00 2.30 59
11 07/04/2020 03:29:24 72.71, 119.53 50.04 07/04/2020 03:30:16 72.70, 119.57 50.03 1.30 52
12 07/04/2020 04:20:08 -72.71, -73.15 129.96 07/04/2020 04:20:58 -72.71, -73.09 129.97 2.20 50
13 07/04/2020 05:10:53 72.66, 94.25 50.00 07/04/2020 05:11:38 72.68, 94.19 50.02 3.00 45
14 07/04/2020 06:01:38 -72.71, -98.54 129.94 07/04/2020 06:02:20 -72.69, -98.47 129.98 3.11 42
15 07/04/2020 06:52:23 72.67, 68.86 50.02 07/04/2020 06:53:00 72.66, 68.80 50.00 2.09 37
16 07/04/2020 07:43:07 -72.67,-123.82 129.99 07/04/2020 07:43:42 -72.67,-123.86 129.99 1.16 35
17 07/04/2020 08:33:53 72.68, 43.47 50.03 07/04/2020 08:34:21 72.69, 43.52 50.04 2.39 28
18 07/04/2020 09:24:37 -72.68,-149.21 129.97 07/04/2020 09:25:04 -72.65,-149.24 130.00 2.95 27
19 07/04/2020 10:15:23 72.68, 18.08 50.04 07/04/2020 10:15:43 72.67, 18.14 50.02 2.39 20
20 07/04/2020 11:06:07 -72.68,-174.60 129.96 07/04/2020 11:06:25 -72.68,-174.52 129.97 2.64 18
21 07/04/2020 11:56:52 72.64, -7.20 50.00 07/04/2020 11:57:05 72.65, -7.24 50.01 1.77 13
22 07/04/2020 12:47:36 -72.64, 160.12 130.00 07/04/2020 12:47:47 -72.66, 160.10 129.98 2.38 11
23 07/04/2020 13:38:22 72.65, -32.59 50.02 07/04/2020 13:38:27 72.63, -32.63 50.00 2.37 5
24 07/04/2020 14:29:06 -72.64, 134.73 129.99 07/04/2020 14:29:09 -72.64, 134.72 129.99 0.95 3
25 07/04/2020 15:19:52 72.65, -57.98 50.03 07/04/2020 15:19:48 72.66, -57.91 50.03 2.44 4
26 07/04/2020 16:10:36 -72.65, 109.34 129.97 07/04/2020 16:10:30 -72.67, 109.44 129.96 3.56 6
27 07/04/2020 17:01:21 72.61, -83.26 49.99 07/04/2020 17:01:10 72.64, -83.29 50.02 3.21 11
28 07/04/2020 17:52:06 -72.66, 83.95 129.96 07/04/2020 17:51:52 -72.65, 84.05 129.97 3.54 14
29 07/04/2020 18:42:51 72.62,-108.65 50.00 07/04/2020 18:42:32 72.62,-108.67 50.01 0.74 19
30 07/04/2020 19:33:35 -72.61, 58.67 130.00 07/04/2020 19:33:14 -72.62, 58.67 129.98 1.16 21
31 07/04/2020 20:24:21 72.62,-134.04 50.02 07/04/2020 20:23:54 72.59,-134.06 50.00 3.20 27
32 07/04/2020 21:15:05 -72.62, 33.28 129.99 07/04/2020 21:14:36 -72.60, 33.29 130.00 1.94 29
33 07/04/2020 22:05:51 72.63,-159.43 50.03 07/04/2020 22:05:15 72.62,-159.34 50.03 3.09 36
34 07/04/2020 22:56:34 -72.58, 8.00 130.03 07/04/2020 22:55:58 -72.58, 7.90 130.01 3.17 36
35 07/04/2020 23:47:20 72.59, 175.29 49.99 07/04/2020 23:46:37 72.60, 175.28 50.02 1.97 43
36 07/05/2020 00:38:04 -72.58, -17.39 130.01 07/05/2020 00:37:19 -72.61, -17.38 129.97 3.18 45
37 07/05/2020 01:28:50 72.59, 149.90 50.00 07/05/2020 01:27:59 72.58, 149.90 50.01 1.16 51
38 07/05/2020 02:19:34 -72.59, -42.78 130.00 07/05/2020 02:18:41 -72.59, -42.76 129.99 0.65 53
39 07/05/2020 03:10:19 72.55, 124.62 49.96 07/05/2020 03:09:21 72.56, 124.52 49.99 3.61 58
40 07/05/2020 04:01:04 -72.60, -68.17 129.98 07/05/2020 04:00:03 -72.57, -68.14 130.00 3.17 61
41 07/05/2020 04:51:49 72.55, 99.23 49.98 07/05/2020 04:50:43 72.54, 99.13 49.98 3.60 66
42 07/05/2020 05:42:33 -72.55, -93.45 130.03 07/05/2020 05:41:25 -72.55, -93.52 130.01 2.50 68
43 07/05/2020 06:33:19 72.56, 73.84 49.99 07/05/2020 06:32:04 72.57, 73.85 50.02 0.94 75
44 07/05/2020 07:24:02 -72.51,-118.74 130.07 07/05/2020 07:22:47 -72.53,-118.91 130.02 6.04 75
45 07/05/2020 08:14:43 72.26, 49.06 49.67 07/05/2020 08:13:32 72.24, 47.86 49.74 40.67 71
46 07/05/2020 09:05:26 -72.21,-143.52 130.39 07/05/2020 09:04:15 -72.20,-144.89 130.30 46.62 71
47 07/05/2020 09:56:07 71.96, 24.26 49.35 07/05/2020 09:54:59 71.96, 21.99 49.51 78.24 68
48 07/05/2020 10:46:50 -71.91,-168.32 130.71 07/05/2020 10:45:42 -71.92,-170.76 130.53 84.11 68
